[[{"header":{"parameterUnit":"m.s-1","parameterCategory":1,"la1":30.2991,"la2":30.254,"lo1":-89.0895,"lo2":-89.0444,"dy":0.0017,"dx":0.0017,"nx":28,"ny":28,"refTime":"2025-11-05T03:00:00:Z","depth":0,"parameterNumber":2,"parameterNumberName":"U-component_of_WINDS"},"data":[0,0,0,0,0,0,0,0,0,0,0,0,0,0,0,0,0,0,0,0,0,0,0,0,0,0,0,0,0,0,0,0,0,0,0,0,0,0,0,0,0,0,0,0,0,0,0,0,0,0,0,0,0,0,0,0,0,0,-0.8859,-0.8858,0,-0.8783,-0.8782,-0.8781,-0.8688,-0.8686,-0.8685,-0.8683,-0.8608,-0.8608,-0.8607,0,0,0,0,0,0,0,0,0,0,0,0,0,-0.8927,-0.8927,-0.8859,-0.8858,-0.8857,-0.8783,-0.8782,-0.8781,-0.8688,-0.8686,-0.8684,-0.8683,-0.8608,-0.8608,-0.8607,0,0,0,0,0,0,0,0,0,0,0,0,0,-0.8879,-0.8926,-0.8859,-0.8802,-0.8796,-0.8783,-0.8782,-0.8781,-0.8688,-0.8686,-0.8684,-0.8682,-0.8609,-0.8608,-0.8607,-0.8646,0,0,-0.8604,-0.8604,0,0,0,0,0,0,0,0,-0.8882,-0.8877,-0.8811,-0.8806,-0.8799,-0.8743,-0.8779,-0.8736,-0.8689,-0.8729,-0.8683,-0.8681,-0.8655,-0.865,-0.8641,-0.8642,-0.8639,-0.8604,-0.8603,-0.8603,-0.8603,0,0,0,0,0,0,0,-0.8886,-0.888,-0.8829,-0.881,-0.8803,-0.8781,-0.8772,-0.877,-0.8706,-0.8726,-0.8719,-0.8711,-0.8651,-0.8642,-0.8638,-0.8638,-0.8604,-0.8603,-0.8603,-0.8602,-0.867,-0.8673,0,0,0,0,0,0,-0.8897,-0.8883,-0.8831,-0.8827,-0.8836,-0.8782,-0.8771,-0.8763,-0.8705,-0.8694,-0.8713,-0.8707,-0.8645,-0.864,-0.8635,-0.8679,-0.8603,-0.8602,-0.8602,-0.8668,-0.8671,-0.8673,0,0,0,0,0,0,-0.8899,-0.8893,-0.8834,-0.8853,-0.8844,-0.8783,-0.8774,-0.8763,-0.8753,-0.8696,-0.8684,-0.8715,-0.8643,-0.8637,-0.8644,-0.8675,-0.8602,-0.8601,-0.8665,-0.8669,-0.8672,-0.8765,0,0,0,0,0,0,-0.8901,-0.8895,-0.8907,-0.8854,-0.8843,-0.8844,-0.8776,-0.8763,-0.8752,-0.8743,-0.8694,-0.8684,-0.864,-0.8646,-0.8643,-0.8672,-0.86,-0.8662,-0.8667,-0.8671,-0.8759,-0.8771,-0.8782,0,0,0,0,0,-0.8904,-0.8937,-0.8909,-0.8903,-0.8858,-0.8846,-0.8839,-0.8788,-0.8754,-0.8768,-0.8731,-0.8686,-0.8672,-0.8648,-0.8644,-0.8673,-0.866,-0.8666,-0.8671,-0.8754,-0.8769,-0.8782,0,0,0,0,0,0,-0.8995,-0.8928,-0.8897,-0.8913,-0.8886,-0.883,-0.8845,-0.8805,-0.8787,-0.878,-0.8717,-0.8707,-0.8723,-0.8698,-0.8673,-0.8709,-0.866,-0.8664,-0.8724,-0.8738,-0.8749,-0.8755,-0.8599,0,0,0,0,0,-0.9018,-0.9012,-0.8954,-0.8974,-0.8962,-0.8906,-0.8899,-0.8861,-0.8831,-0.8819,-0.8783,-0.8756,-0.8746,-0.874,-0.8728,-0.8755,-0.8745,-0.8773,-0.8785,-0.8795,-0.88,-0.8815,-0.8828,-0.8691,-0.8691,-0.8691,0,0,-0.9063,-0.9026,-0.9026,-0.8991,-0.8966,-0.8963,-0.8897,-0.8896,-0.8894,-0.8819,-0.8824,-0.8798,-0.8764,-0.8782,-0.8789,-0.8762,-0.8836,-0.8801,-0.881,-0.8809,-0.8822,-0.8835,-0.8847,-0.8695,-0.8694,-0.8693,0,0,-0.9145,-0.9115,-0.9129,-0.9106,-0.9068,-0.9031,-0.9035,-0.8986,-0.8965,-0.8969,-0.8914,-0.8911,-0.8894,-0.8873,-0.886,-0.8937,-0.8896,-0.8935,-0.8995,-0.901,-0.9021,-0.9031,-0.906,-0.9071,-0.894,-0.894,-0.894,0,-0.9206,-0.9198,-0.9142,-0.9145,-0.9133,-0.9065,-0.908,-0.906,-0.9021,-0.9015,-0.8986,-0.8965,-0.8937,-0.8951,-0.897,-0.8961,-0.8965,-0.894,-0.9024,-0.9033,-0.9041,-0.9068,-0.9079,-0.8945,-0.8945,-0.8944,-0.8944,0,-0.9277,-0.9273,-0.9289,-0.9253,-0.9242,-0.9252,-0.9199,-0.9195,-0.9159,-0.9126,-0.9133,-0.9098,-0.9078,-0.9078,-0.9043,-0.9088,-0.9073,-0.9035,-0.8985,-0.906,-0.9085,-0.9095,-0.8952,-0.8951,-0.8949,-0.8948,0,0,-0.9413,-0.9347,-0.9354,-0.9338,-0.9293,-0.9289,-0.9297,-0.9277,-0.9276,-0.9252,-0.9258,-0.9247,-0.9212,-0.9198,-0.916,-0.9174,-0.924,-0.9134,-0.9132,-0.9156,-0.929,-0.932,-0.9333,-0.9212,-0.9214,-0.9215,-0.9294,0,-0.9487,-0.9495,-0.9446,-0.9468,-0.9465,-0.9402,-0.9409,-0.9383,-0.9353,-0.9347,-0.9314,-0.9308,-0.9261,-0.9253,-0.9263,-0.923,-0.9266,-0.9223,-0.9219,-0.922,-0.923,-0.9345,-0.9376,-0.9452,-0.9303,-0.9304,-0.9305,0,-0.9574,-0.9555,-0.9577,-0.9533,-0.953,-0.9537,-0.9517,-0.9511,-0.9482,-0.9459,-0.9445,-0.9402,-0.9408,-0.936,-0.9369,-0.9341,-0.9337,-0.9321,-0.9322,-0.9321,-0.9268,-0.9348,-0.9474,-0.9487,-0.932,-0.9319,-0.9318,0,-0.9673,-0.9653,-0.9664,-0.9652,-0.9601,-0.9608,-0.9587,-0.9555,-0.9548,-0.953,-0.9525,-0.9509,-0.95,-0.949,-0.9444,-0.9413,-0.946,-0.9407,-0.9443,-0.9445,-0.9456,-0.9456,-0.9585,-0.9452,-0.9452,-0.9452,-0.9451,0,-0.9762,-0.9778,-0.9708,-0.9715,-0.9733,-0.9677,-0.9696,-0.9669,-0.9642,-0.9645,-0.9589,-0.9593,-0.9532,-0.9529,-0.9494,-0.9509,-0.9505,-0.9488,-0.9479,-0.9494,-0.9496,-0.9491,-0.9485,-0.9454,-0.9454,-0.9453,-0.9453,0,-0.9875,-0.9829,-0.9837,-0.9789,-0.9777,-0.9792,-0.9751,-0.9757,-0.9724,-0.9728,-0.9725,-0.9675,-0.9669,-0.9623,-0.9606,-0.9583,-0.9612,-0.9592,-0.9622,-0.9616,-0.9655,-0.9653,-0.9786,-0.9801,-0.9657,-0.9659,-0.966,0,-0.9935,-0.9946,-0.9899,-0.9897,-0.9878,-0.9875,-0.9867,-0.9813,-0.9808,-0.9777,-0.9787,-0.9777,-0.9766,-0.976,-0.9723,-0.9711,-0.9691,-0.9739,-0.9689,-0.9705,-0.9694,-0.9694,-0.9696,-0.9749,-0.9751,-0.9753,-0.9754,0,-1.0047,-1.0024,-1.0014,-0.9998,-0.999,-0.9974,-0.9955,-0.9957,-0.9898,-0.9895,-0.9889,-0.988,-0.9865,-0.9857,-0.9839,-0.9819,-0.9778,-0.977,-0.9778,-0.9794,-0.9812,-0.9805,-0.9652,-0.9767,-0.9766,-0.9765,-0.9764,-0.9764,-1.0136,-1.0144,-1.0113,-1.0105,-1.0086,-1.007,-1.0073,-1.0042,-1.0035,-1.0018,-0.9987,-0.9986,-0.9959,-0.9931,-0.9915,-0.9915,-0.989,-0.9901,-0.9904,-0.9908,-0.9917,-0.9811,-0.9911,-0.9911,-0.991,-0.991,-0.991,0,-1.0247,-1.0224,-1.0217,-1.0193,-1.0188,-1.0149,-1.0127,-1.0125,-1.0125,-1.0103,-1.0094,-1.0088,-1.008,-1.0043,-1.0032,-1.0039,-1.002,-1.0038,-1.0038,-1.0034,-0.9939,-0.9934,-1.0054,-1.0054,-1.0054,-1.0054,-1.0054,-1.0054,-1.0304,-1.0316,-1.029,-1.0294,-1.0271,-1.0269,-1.026,-1.0246,-1.0229,-1.0225,-1.0218,-1.0194,-1.0167,-1.0153,-1.0146,-1.0135,-1.0134,-1.0159,-1.0143,-1.0054,-1.0041,-1.0027,-1.0022,-1.0159,-1.0159,-1.0238,-1.0239,-1.0239]},{"header":{"parameterUnit":"m.s-1","parameterCategory":1,"la1":30.2991,"la2":30.254,"lo1":-89.0895,"lo2":-89.0444,"dy":0.0017,"dx":0.0017,"nx":28,"ny":28,"refTime":"2025-11-05T03:00:00:Z","depth":0,"parameterNumber":3,"parameterNumberName":"V-component_of_WINDS"},"data":[0,0,0,0,0,0,0,0,0,0,0,0,0,0,0,0,0,0,0,0,0,0,0,0,0,0,0,0,0,0,0,0,0,0,0,0,0,0,0,0,0,0,0,0,0,0,0,0,0,0,0,0,0,0,0,0,0,0,1.0472,1.0471,0,1.0421,1.042,1.0419,1.0445,1.0446,1.0447,1.0448,1.039,1.0387,1.0384,0,0,0,0,0,0,0,0,0,0,0,0,0,1.0585,1.0583,1.0472,1.0471,1.047,1.0421,1.042,1.0419,1.0444,1.0446,1.0448,1.0449,1.0391,1.0387,1.0384,0,0,0,0,0,0,0,0,0,0,0,0,0,1.0535,1.0582,1.0472,1.0477,1.0477,1.0421,1.042,1.0419,1.0444,1.0446,1.0448,1.045,1.0392,1.0388,1.0383,1.0317,0,0,1.0371,1.0369,0,0,0,0,0,0,0,0,1.0538,1.0531,1.0477,1.0477,1.0476,1.0441,1.0438,1.0385,1.0443,1.0456,1.0449,1.0451,1.0405,1.04,1.0385,1.0314,1.0312,1.037,1.0368,1.0366,1.0365,0,0,0,0,0,0,0,1.0541,1.0533,1.0451,1.0476,1.0476,1.048,1.0475,1.0428,1.042,1.0455,1.0457,1.0451,1.0405,1.0389,1.0384,1.0311,1.037,1.0367,1.0364,1.0362,1.0182,1.018,0,0,0,0,0,0,1.0545,1.0536,1.0453,1.045,1.0513,1.0476,1.0471,1.045,1.042,1.0418,1.0449,1.0452,1.0396,1.0389,1.0382,1.0302,1.0366,1.0362,1.0359,1.0184,1.0182,1.0179,0,0,0,0,0,0,1.0547,1.0537,1.0455,1.0493,1.0483,1.0472,1.0449,1.0448,1.0433,1.0416,1.0414,1.0435,1.0397,1.0388,1.0333,1.03,1.036,1.0356,1.0187,1.0184,1.018,1.0141,0,0,0,0,0,0,1.0551,1.0538,1.0514,1.0493,1.0481,1.0409,1.0447,1.0446,1.0426,1.043,1.0402,1.04,1.0398,1.034,1.0329,1.0295,1.0353,1.019,1.0185,1.0181,1.0145,1.0136,1.0129,0,0,0,0,0,1.0555,1.0504,1.0513,1.0503,1.0451,1.0407,1.04,1.0401,1.0424,1.0398,1.0387,1.04,1.0306,1.0334,1.0322,1.0287,1.0192,1.0187,1.0182,1.0148,1.0138,1.0129,0,0,0,0,0,0,1.0519,1.0501,1.0511,1.0452,1.0431,1.0411,1.0379,1.039,1.036,1.0364,1.0365,1.0359,1.0302,1.0289,1.032,1.022,1.0252,1.0244,1.0231,1.0221,1.0213,1.0216,1.0349,0,0,0,0,0,1.0505,1.0473,1.0458,1.0407,1.0397,1.039,1.037,1.0373,1.0351,1.0341,1.0326,1.0302,1.0267,1.0243,1.021,1.0144,1.0137,1.0114,1.0106,1.0099,1.0092,1.0055,1.0044,1.0163,1.0163,1.0163,0,0,1.0475,1.0461,1.044,1.04,1.0384,1.0348,1.0382,1.0343,1.0316,1.0334,1.0282,1.027,1.0243,1.0182,1.0155,1.017,1.0058,1.0093,1.0088,1.0084,1.0048,1.0037,1.0027,1.0159,1.016,1.016,0,0,1.0401,1.0388,1.0344,1.0328,1.0304,1.03,1.029,1.0268,1.0262,1.021,1.0223,1.019,1.013,1.011,1.0092,1.0011,1.0021,1.0,0.9958,0.9921,0.9912,0.9904,0.9873,0.9862,0.9993,0.9993,0.9993,0,1.0365,1.0314,1.0319,1.0279,1.0261,1.0279,1.0233,1.0217,1.0182,1.0168,1.0186,1.0111,1.0094,1.0028,1.0009,0.9994,0.998,1.0002,0.9913,0.9905,0.9897,0.9868,0.9857,0.9991,0.9991,0.9991,0.9991,0,1.027,1.0235,1.0202,1.017,1.0148,1.0105,1.0103,1.0079,1.0084,1.0078,1.0024,1.0005,0.9967,0.9952,0.9956,0.9887,0.9897,0.9914,0.9945,0.9883,0.9856,0.9845,0.9987,0.9988,0.9989,0.9989,0,0,1.017,1.0144,1.0132,1.0118,1.0093,1.0065,1.0022,0.9988,0.9967,0.9943,0.9906,0.9856,0.9872,0.9851,0.9853,0.9821,0.9757,0.9843,0.9842,0.9826,0.9677,0.9662,0.965,0.9764,0.9762,0.9761,0.9679,0,1.0093,1.0022,1.0026,0.9957,0.9923,0.994,0.9903,0.9883,0.9876,0.9845,0.9837,0.98,0.9825,0.9813,0.9783,0.9771,0.9726,0.9777,0.9727,0.9726,0.9732,0.9635,0.962,0.9543,0.9668,0.9666,0.9665,0,0.9993,0.9968,0.9897,0.9878,0.9864,0.983,0.9799,0.977,0.9747,0.9744,0.9722,0.9729,0.9684,0.9718,0.9655,0.969,0.967,0.9661,0.9658,0.9652,0.969,0.9624,0.9519,0.9507,0.9648,0.965,0.9651,0,0.9926,0.9874,0.9824,0.9812,0.9789,0.9765,0.9753,0.9733,0.9712,0.9684,0.967,0.9637,0.9618,0.9591,0.9588,0.9614,0.9524,0.9559,0.9518,0.9518,0.9497,0.9497,0.9384,0.9487,0.9487,0.9488,0.9488,0,0.9838,0.9793,0.9794,0.9763,0.9713,0.9718,0.9667,0.9658,0.964,0.9606,0.9619,0.9586,0.9586,0.9552,0.9549,0.9496,0.9488,0.9483,0.9482,0.948,0.9481,0.9465,0.947,0.9485,0.9485,0.9486,0.9486,0,0.9753,0.9752,0.9699,0.9682,0.9677,0.964,0.9625,0.9594,0.959,0.9547,0.9537,0.9528,0.9489,0.9484,0.9438,0.9436,0.9372,0.9378,0.938,0.938,0.934,0.9343,0.9211,0.9193,0.9309,0.9308,0.9307,0,0.9696,0.9662,0.9642,0.9622,0.961,0.9576,0.9556,0.9559,0.9537,0.9509,0.9481,0.9444,0.9414,0.9351,0.9339,0.9304,0.9307,0.9264,0.9302,0.9301,0.9304,0.9306,0.9301,0.9256,0.9254,0.9253,0.9252,0,0.9594,0.9596,0.9567,0.9537,0.9513,0.9489,0.9467,0.9449,0.945,0.9423,0.9385,0.9362,0.9316,0.9278,0.9244,0.923,0.924,0.9241,0.9229,0.9226,0.9228,0.9225,0.9358,0.9243,0.9244,0.9245,0.9245,0.9246,0.952,0.9491,0.9472,0.9439,0.9424,0.9403,0.9374,0.9366,0.9335,0.9299,0.9303,0.926,0.9237,0.9192,0.9176,0.9141,0.9155,0.9138,0.9134,0.9129,0.9124,0.9236,0.9134,0.9135,0.9135,0.9135,0.9135,0,0.9418,0.9407,0.9377,0.9347,0.932,0.9336,0.9312,0.9288,0.9251,0.923,0.9202,0.9157,0.912,0.9106,0.907,0.9045,0.9048,0.9035,0.9035,0.9032,0.9114,0.9127,0.9032,0.9032,0.9032,0.9032,0.9032,0.9032,0.9361,0.9312,0.9311,0.9254,0.9243,0.9203,0.9188,0.9168,0.9151,0.9101,0.9072,0.9064,0.9045,0.9008,0.8975,0.8972,0.8956,0.894,0.8939,0.9016,0.9026,0.9036,0.9048,0.8938,0.8938,0.8859,0.8858,0.8857]}]]